SES-17

Last updated on Sun Dec 14 2025 00:02:53 GMT+0000 (Coordinated Universal Time)

1 49332U 21095A 25347.18019387 -.00000259 00000+0 00000+0 0 9991 2 49332 0.0218 29.8553 0000986 233.0161 177.0162 1.00270054 15992
UTC large
Height (km)
Speed (km/s)
/
Latitude / Longitude
Inclination (degrees)
Orbital Period (minutes)
Azimuth
Elevation
Range (km)
Doppler Factor

Next 0 passes for location: London (51.5072 / 0.1276)

Sorry there are no passes over London.